Location: Nantong Television Tower
(32.0188°N, 120.8512°E)
Time: 08:53:00
(UTC+08:00)

Daily predictions for brighter satellites

Satellite Brightness Start Highest point End
(mag) Time Altitude Azimuth Time Altitude Azimuth Time Altitude Azimuth
Cosmos 2082 Rocket 2.7 19:13:36 10° NNW 19:19:13 66° WSW 19:24:50 10° S
Meteor 2-3 Rocket 4.1 19:16:43 10° SSE 19:22:09 46° E 19:27:33 10° NNE
COSMOS 2487 2.6 19:19:05 10° NNW 19:22:38 78° WSW 19:26:10 10° S
Cosmos 990 Rocket 4.0 19:17:45 10° SSW 19:22:56 88° ESE 19:28:11 10° NNE
Envisat 3.8 19:19:01 10° SE 19:23:34 35° ENE 19:28:08 10° N
Helios 1B rocket 3.8 19:21:01 10° NE 19:23:57 19° E 19:26:52 10° SE
Cosmos 1833 Rocket 3.3 19:19:32 10° NNW 19:25:05 61° WSW 19:30:35 10° S
USA 186 2.2 19:22:53 10° SE 19:25:16 32° ENE 19:27:50 10° N
HJ-1C 4.4 19:23:25 10° S 19:26:46 51° W 19:30:08 10° NNW
Cosmos 1125 Rocket 4.2 19:33:39 10° SSE 19:38:17 32° E 19:42:54 10° NE
Meteor 1-29 4.4 19:37:03 10° NE 19:39:36 19° E 19:41:55 11° SE
Cosmos 1943 Rocket 2.8 19:34:42 10° SSE 19:39:41 34° ESE 19:44:40 10° NE
GPS 2-04 Rocket1 3.4 19:37:44 10° WNW 19:41:27 46° N 19:44:59 10° ENE
Cosmos 1816 Rocket 4.5 19:35:22 10° S 19:41:32 85° E 19:47:41 10° N
ISS -0.8 19:44:52 10° W 19:47:13 18° NW 19:49:34 10° N
Timation 2 Rocket 4.3 19:41:12 10° NNW 19:47:36 75° WSW 19:54:15 10° SSE
Lacrosse 5 rocket 2.7 19:46:36 10° WSW 19:49:54 36° NW 19:53:16 10° NNE
Aureole 1 4.1 19:47:10 10° SSW 19:50:09 87° WNW 19:53:23 10° NNE
Cosmos 1346 Rocket 2.8 19:48:35 10° N 19:52:32 61° E 19:56:26 10° SSE
Tiangong 2 1.9 19:50:27 10° NW 19:53:33 44° NNE 19:55:41 17° E
CZ-4B DEB 4.3 19:53:34 16° E 19:54:17 17° ENE 19:56:20 10° NNE
TIMED 4.5 19:50:13 10° SSW 19:54:34 87° ESE 19:58:58 10° NNE
Cosmos 1408 3.7 19:54:36 17° SE 19:56:33 26° E 19:59:42 10° NNE
DNEPR-1 R/B 3.9 19:51:01 10° SSW 19:56:41 74° ESE 20:01:24 10° NNE
CENTAUR R/B 2.3 19:51:58 10° SSW 19:57:44 76° ESE 20:04:14 10° NNE
Cosmos 2263 4.2 19:52:09 10° S 19:57:52 68° ESE 20:03:34 10° NNE
Helios 1A 3.5 19:55:25 16° SE 19:58:23 40° ENE 20:02:19 10° N
SL-19 R/B 4.5 19:55:00 11° SSE 20:00:23 61° ENE 20:06:23 10° N
Cosmos 1939 Rocket 2.9 19:59:18 13° SSE 20:02:55 66° ENE 20:07:01 10° N
Shenzhou-11 Module 1.9 20:03:15 10° WNW 20:06:19 80° NNE 20:07:39 30° ESE
Cosmos 2369 Rocket 2.6 20:01:02 10° SSW 20:06:38 69° WNW 20:12:19 10° NNE
Cosmos 2344 3.7 20:01:00 10° S 20:08:30 52° ESE 20:16:08 10° NE
Hubble Space Telescope 3.2 20:11:45 10° SW 20:12:25 10° SSW 20:13:05 10° SSW
H-2A R/B 3.9 20:14:53 14° E 20:16:20 16° ENE 20:19:26 10° NNE
Cosmos 1825 2.4 20:14:36 25° SSE 20:16:28 47° E 20:20:06 10° NNE
OAO 3 Copernicus 4.4 20:13:19 10° W 20:18:21 77° NNW 20:22:49 13° ENE
Star 37E S/N 40062 4.0 20:22:13 10° WSW 20:24:23 39° S 20:25:01 35° SSE
Resurs 01 Rocket 3.7 20:20:51 10° SSW 20:24:28 25° W 20:28:07 10° NW
Spot 1 4.3 20:21:55 24° SSE 20:24:50 74° ENE 20:29:49 10° N
ERS-1 Rocket 3.4 20:23:40 28° SE 20:25:47 44° ENE 20:30:33 10° N
Aureole 3 2.8 20:24:53 20° SSW 20:26:53 71° W 20:29:50 10° N
ATLAS 5 CENTAUR R/B 3.3 20:23:41 10° NNW 20:29:18 36° NE 20:32:12 25° E
Cosmos 1782 2.8 20:28:55 10° N 20:32:52 62° E 20:33:51 45° SE
Cosmos 1656 Rocket 3.9 20:32:52 27° SSE 20:35:21 45° ESE 20:40:33 10° NE
Okean 1-7 2.9 20:31:25 10° N 20:35:50 85° E 20:37:42 34° S
ARGOS 3.7 20:37:59 33° ESE 20:39:29 40° ENE 20:44:28 10° N
Delta 7925 Rocket 3.9 20:36:05 10° WSW 20:40:34 40° S 20:41:15 38° SSE
Cosmos 1048 Rocket 4.1 20:38:42 10° N 20:43:56 59° ENE 20:45:24 43° SE
deb Kosmos-1763 4.3 20:42:47 10° N 20:46:26 55° ENE 20:46:26 55° ENE
Cosmos 1862 3.1 20:48:36 68° SE 20:48:53 71° E 20:52:51 10° N
Meteor 1-27 Rocket 3.9 20:45:16 10° N 20:50:49 51° E 20:52:01 43° ESE
Meteor 1-10 Rocket 4.3 20:46:52 10° N 20:52:49 85° W 20:55:40 32° S
SAR-Lupe-4 3.8 20:52:38 55° SW 20:53:05 61° W 20:56:38 10° NNW
SPOT 5 3.4 20:52:20 42° ESE 20:53:18 47° ENE 20:58:22 10° N
Cosmos 1340 2.7 20:52:02 10° N 20:55:33 68° NE 20:55:33 68° NE
Meteor 2-6 Rocket 4.3 20:50:13 10° N 20:56:13 87° W 20:58:51 36° S
Nadezhda 4 Rocket 3.9 20:57:22 41° SSE 20:59:30 64° E 21:05:36 10° NNE
Cosmos 1733 Rocket 2.9 20:59:57 71° E 20:59:57 71° E 21:04:12 10° N
Cosmos 1092 Rocket 4.3 20:59:37 42° ESE 21:00:11 43° E 21:05:55 10° NNE
Cosmos 2084 4.3 21:02:20 10° NW 21:05:55 35° WSW 21:06:12 35° SW
Lacrosse 4 Rocket 1.6 21:04:47 10° NNW 21:08:58 63° NE 21:08:58 63° NE
MetOp-A 4.2 21:09:28 50° S 21:10:53 76° WSW 21:16:15 10° NNW
ATLAS CENTAUR R/B 3.6 21:16:01 15° NE 21:16:01 15° NE 21:16:43 10° NE
SPOT 1/Viking Rocket 3.7 21:14:24 55° ENE 21:14:26 55° ENE 21:19:31 10° N
Cosmos 1606 4.0 21:12:06 10° NNW 21:15:33 34° W 21:15:54 33° WSW
Milstar 3 3.3 21:05:24 10° WSW 21:17:12 67° S 21:19:51 44° ESE
DMSP B5D2-2 4.4 21:12:09 10° NNE 21:16:28 49° ENE 21:16:28 49° ENE
GPS 2-04 Rocket1 4.0 21:17:40 10° WNW 21:19:53 34° WNW 21:19:53 34° WNW
Cosmos 1943 Rocket 4.2 21:18:48 10° WSW 21:23:24 26° WNW 21:27:59 10° N
Cosmos 1269 Rocket 4.3 21:18:21 10° NNW 21:23:33 61° WSW 21:24:16 55° SW
USA 215 3.6 21:22:03 42° E 21:23:49 54° NE 21:30:10 10° NNW
SL-08 RB Rocket 3.8 21:27:54 74° WNW 21:27:54 74° WNW 21:32:17 10° NNW
Cosmos 2219 4.2 21:23:52 10° N 21:28:43 32° ENE 21:28:43 32° ENE
Tiangong 2 4.3 21:27:50 10° W 21:28:04 11° W 21:28:04 11° W
Mugunghwa Rocket 4.4 21:32:07 10° WSW 21:39:28 59° S 21:39:30 59° S
Cosmos 2195 Rocket 4.4 21:49:06 75° ENE 21:49:06 75° ENE 21:55:06 10° N
VEP-3 4.4 20:40:04 10° W 21:50:19 51° SSW 21:53:19 43° S
Cosmos 494 Rocket 4.5 21:45:50 10° NNW 21:49:57 56° N 21:49:57 56° N
H-2A R/B 4.3 21:53:35 18° NNE 21:53:35 18° NNE 21:54:51 10° N
H-2A R/B 2.6 21:55:32 54° W 21:55:32 54° W 22:00:30 10° NNW
Cosmos 1867 4.1 21:51:30 10° NNW 21:55:52 54° N 21:55:52 54° N
Terra 3.1 22:09:48 38° NNW 22:09:48 38° NNW 22:12:43 10° NNW
Cosmos 1655 Rocket 4.4 22:11:42 56° NNE 22:11:42 56° NNE 22:16:35 10° N
ATLAS 5 CENTAUR R/B 3.5 22:08:20 10° NW 22:13:45 36° WSW 22:13:45 36° WSW
Cosmos 2297 Rocket 4.1 22:10:59 10° NNE 22:14:01 20° NE 22:14:01 20° NE
Cosmos 2026 Rocket 4.2 22:18:48 64° NW 22:18:48 64° NW 22:24:20 10° N
BREEZE-M DEB (TANK) 3.9 22:20:14 51° NNW 22:20:14 51° NNW 22:29:59 10° NE
Cosmos 2227 Rocket 3.7 22:59:35 10° NNW 23:02:38 33° N 23:02:38 33° N
Cosmos 1980 Rocket 4.3 23:27:52 20° NNE 23:27:52 20° NNE 23:29:33 10° NNE
